Location: Newark
(34.7333°N, 33.0833°E)
Time: 17:46:32
(UTC+00:00)

Envisat - Visible Passes

Search period start: 21 January 2020 00:00
Search period end: 31 January 2020 00:00
Orbit: 764 x 766 km, 98.1° (Epoch: 21 January)

Date Brightness Start Highest point End Pass type
(mag) Time Alt. Az. Time Alt. Az. Time Alt. Az.
21 Jan 5.1 03:45:14 10° NE 03:49:43 31° E 03:54:11 10° SSE visible
21 Jan 5.2 16:35:35 10° SSW 16:39:49 27° W 16:44:06 10° NW visible
22 Jan 6.2 03:10:25 10° ENE 03:12:40 13° E 03:14:55 10° ESE visible
22 Jan 3.5 15:57:54 10° S 16:02:56 65° W 16:07:59 10° NNW visible
23 Jan 3.8 04:10:16 10° NNE 04:15:17 58° E 04:20:16 10° S visible
23 Jan 6.1 17:02:47 10° SW 17:05:30 14° W 17:08:14 10° WNW visible
24 Jan 5.5 03:34:16 10° NE 03:38:22 24° E 03:42:26 10° SSE visible
24 Jan 4.8 16:23:53 10° SSW 16:28:28 34° W 16:33:06 10° NNW visible
25 Jan 3.1 15:46:33 10° S 15:51:38 84° WSW 15:56:44 10° NNW visible
26 Jan 4.3 03:59:07 10° NNE 04:03:58 44° E 04:08:47 10° S visible
26 Jan 5.8 16:50:35 10° SW 16:54:06 19° W 16:57:39 10° NW visible
27 Jan 5.9 03:23:28 10° NE 03:27:00 19° E 03:30:30 10° SE visible
27 Jan 4.3 16:12:19 10° S 16:17:08 45° W 16:22:00 10° NNW visible
28 Jan 3.0 15:35:18 10° SSE 15:40:21 76° ENE 15:45:26 10° N visible
29 Jan 4.9 03:48:01 10° NNE 03:52:38 34° E 03:57:13 10° SSE visible
29 Jan 5.4 16:38:39 10° SSW 16:42:44 24° W 16:46:51 10° NW visible
30 Jan 6.2 03:12:54 10° ENE 03:15:36 14° E 03:18:18 10° SE visible
30 Jan 3.7 16:00:51 10° S 16:05:49 58° W 16:10:51 10° NNW visible
